Dewpoint
-4 -4 -4 -3 -4 -4 -4 -4 -4 -3 -3 -3 -3 -4 -4 -5 -5 -5 -6 -6 -6 -6 -6 -7 -7 -8 -9 -9 -9 -8 -9 -10 -9 -10 -10 -11 -11 -11 -11 -10 -9 -9
-4 -4 -3 -3 -3 -3 -4 -4 -3 -3 -3 -2 -2 -2 -3 -4 -4 -4 -5 -5 -5 -6 -6 -6 -6 -7 -8 -9 -9 -8 -9 -9 -10 -10 -10 -11 -10 -10 -10 -10 -9 -8
-4 -4 -3 -4 -4 -3 -3 -4 -3 -3 -2 -1 -1 -1 -2 -3 -3 -4 -4 -5 -5 -5 -5 -5 -5 -6 -8 -9 -9 -9 -9 -9 -10 -10 -11 -10 -11 -10 -10 -9 -9 -8
-5 -4 -4 -4 -4 -4 -3 -3 -3 -3 -3 -3 -2 -1 -2 -2 -3 -3 -3 -4 -4 -5 -5 -5 -5 -5 -7 -9 -9 -9 -9 -9 -9 -10 -11 -10 -11 -10 -10 -9 -9 -8
-4 -5 -4 -4 -3 -3 -2 -2 -4 -4 -4 -4 -2 -1 -2 -2 -3 -3 -3 -3 -4 -4 -4 -5 -4 -5 -7 -9 -9 -9 -8 -9 -9 -10 -11 -11 -11 -11 -10 -10 -10 -9
0 -1 -2 -3 -2 -1 -1 -2 -3 -4 -5 -4 -2 -1 -2 -2 -2 -2 -2 -3 -3 -3 -4 -4 -4 -5 -7 -9 -9 -9 -9 -9 -9 -10 -10 -11 -11 -11 -11 -11 -11 -11
3 3 2 1 1 1 1 0 -1 -2 -4 -3 -2 -1 -1 -1 -1 -1 -2 -2 -2 -3 -3 -4 -4 -5 -7 -9 -9 -9 -9 -9 -10 -10 -10 -11 -11 -11 -11 -12 -12 -13
4 5 4 4 4 3 3 2 0 -1 -2 -2 -1 -0 1 0 1 0 -1 -2 -2 -2 -2 -3 -3 -4 -7 -9 -9 -8 -9 -9 -9 -10 -11 -11 -11 -12 -12 -12 -12 -13
5 5 5 5 5 5 4 3 2 1 -0 -1 -1 1 2 2 2 2 1 -0 -1 -1 -2 -3 -3 -4 -8 -9 -9 -9 -8 -9 -9 -10 -11 -11 -11 -11 -11 -11 -12 -12
5 5 6 6 6 6 5 5 4 3 2 2 1 2 3 3 3 2 1 1 1 0 -1 -2 -3 -5 -8 -9 -8 -8 -9 -9 -10 -10 -11 -11 -10 -10 -9 -9 -10 -11
5 5 6 6 6 6 6 6 6 5 5 4 4 4 4 4 4 3 2 1 2 1 -0 -2 -4 -7 -9 -8 -8 -8 -8 -9 -10 -10 -11 -10 -10 -9 -8 -8 -9 -10
5 5 5 5 5 6 6 6 7 6 6 6 6 5 5 4 4 3 2 2 2 1 -0 -2 -5 -8 -8 -7 -8 -8 -8 -9 -9 -10 -10 -10 -9 -9 -8 -8 -8 -9
6 6 6 6 6 6 7 7 7 7 7 7 7 6 5 5 4 3 3 3 2 1 -1 -4 -7 -7 -6 -5 -6 -6 -7 -8 -8 -9 -9 -9 -8 -7 -7 -8 -8 -9
9 8 7 7 7 7 7 8 8 7 7 8 8 7 6 4 3 3 3 3 2 1 -2 -5 -6 -5 -4 -4 -4 -5 -6 -6 -6 -7 -7 -8 -8 -7 -7 -8 -8 -9
9 9 9 8 8 7 7 8 7 7 7 7 7 7 6 5 4 4 3 3 2 -1 -4 -6 -4 -3 -3 -3 -3 -3 -4 -4 -5 -5 -6 -6 -6 -6 -7 -8 -9 -12
5 7 8 8 8 7 8 8 7 7 7 6 6 6 5 5 4 4 3 2 0 -3 -5 -4 -3 -3 -2 -2 -2 -2 -3 -3 -4 -4 -4 -5 -5 -5 -8 -11 -15 -20
1 4 6 6 6 7 8 8 8 7 7 7 6 5 5 4 4 4 3 1 -2 -5 -4 -3 -3 -2 -1 -1 -2 -2 -3 -3 -3 -4 -4 -4 -6 -9 -13 -18 -21 -22
-6 -2 1 4 6 7 8 9 9 8 7 7 6 5 5 4 3 3 1 -2 -4 -4 -3 -2 -1 -1 -1 -1 -2 -2 -3 -3 -3 -4 -5 -8 -12 -16 -19 -20 -19 -19
-10 -7 -4 -0 4 7 8 9 8 8 7 7 6 5 4 3 2 1 -1 -3 -3 -3 -2 -1 -0 -1 -1 -2 -2 -3 -3 -3 -5 -7 -11 -15 -18 -18 -18 -17 -16 -15
-11 -9 -7 -4 0 5 8 9 8 7 7 6 5 4 4 3 1 -1 -1 -2 -2 -1 -1 -0 -0 -1 -2 -2 -3 -3 -4 -6 -9 -14 -19 -19 -18 -16 -15 -14 -13 -12
-10 -10 -8 -4 0 5 7 8 7 7 7 6 5 5 4 2 -0 -2 -2 -1 -0 0 -0 -1 -1 -2 -3 -4 -4 -6 -8 -12 -17 -20 -19 -17 -16 -14 -13 -12 -12 -11
-7 -9 -7 -3 1 5 7 7 7 7 6 5 5 4 2 -0 -2 -2 -0 0 0 -0 -1 -2 -3 -4 -5 -7 -9 -12 -16 -18 -18 -18 -16 -14 -14 -13 -12 -11 -11 -10
-5 -6 -6 -2 2 6 7 7 7 6 5 5 4 2 -0 -1 -1 0 0 -0 -1 -2 -3 -4 -5 -8 -10 -14 -16 -18 -18 -16 -15 -14 -14 -13 -12 -11 -11 -10 -10 -9
-3 -4 -4 -0 4 6 7 7 7 6 5 4 2 0 -1 0 1 -0 -1 -2 -3 -4 -5 -8 -11 -15 -18 -19 -18 -16 -15 -14 -13 -13 -12 -11 -11 -10 -10 -9 -9 -9
-2 -2 -1 2 5 6 6 6 6 5 4 3 1 -0 0 -0 -1 -2 -3 -4 -6 -8 -12 -16 -19 -20 -18 -16 -15 -14 -13 -13 -12 -11 -11 -10 -9 -9 -9 -8 -8 -8
0 1 2 4 6 6 6 6 5 3 2 1 -0 -1 -1 -2 -3 -5 -7 -10 -14 -17 -21 -22 -19 -17 -17 -15 -14 -14 -13 -12 -11 -10 -9 -9 -8 -8 -8 -8 -8 -8
Wind_Speed
19 18 17 16 14 12 11 11 11 10 8 8 8 7 8 8 7 6 5 4 3 3 3 4 5 6 6 7 7 7 8 8 9 9 9 9 9 8 8 9 9 10
21 20 19 18 17 15 14 13 12 12 10 9 9 9 10 10 9 8 7 6 5 5 5 5 6 7 7 7 7 8 8 9 9 10 10 10 10 9 9 9 9 10
24 23 21 20 19 18 16 15 14 13 12 12 11 12 12 12 11 10 9 8 7 7 7 7 8 8 8 8 8 9 10 10 10 10 10 10 10 10 10 10 10 10
26 25 24 22 21 19 18 17 16 16 15 14 14 14 14 14 13 12 11 10 9 9 9 10 10 10 10 10 10 10 11 12 12 12 12 12 12 11 11 11 11 11
28 27 26 24 23 22 20 19 18 18 17 16 15 15 16 16 15 13 12 12 12 12 12 12 12 11 12 11 11 11 12 13 14 14 14 14 14 13 13 13 12 12
28 29 28 27 25 24 23 21 20 20 19 19 18 17 18 18 17 15 15 14 14 14 14 14 13 13 13 12 12 12 13 13 14 15 16 16 16 16 16 16 15 14
29 27 27 28 28 26 25 23 22 21 21 20 20 20 20 20 19 18 17 16 16 17 16 15 15 14 14 13 12 13 13 13 15 15 16 16 17 17 18 18 18 18
31 29 27 27 28 28 27 25 24 23 22 23 22 22 22 21 20 19 18 18 19 19 18 17 16 16 15 14 13 14 14 14 15 16 16 17 17 18 19 19 19 20
32 31 30 29 29 29 29 28 26 25 25 24 24 23 23 22 21 21 20 20 20 20 19 18 18 17 15 14 15 15 15 16 16 16 17 17 17 18 19 20 20 21
33 32 31 32 32 31 31 30 29 28 27 26 26 25 24 23 22 21 21 22 21 21 20 20 18 17 16 15 15 16 16 17 18 18 18 18 18 19 20 21 22 22
34 33 32 32 32 32 32 32 31 31 30 28 27 26 25 24 23 22 22 22 22 21 21 20 18 17 16 15 15 16 17 18 18 19 19 20 21 21 22 23 24 25
34 34 33 32 31 32 33 34 34 33 33 31 29 27 26 25 24 23 22 22 22 22 20 19 18 16 15 14 15 16 18 19 20 21 21 22 23 24 25 26 27 28
34 35 35 34 33 32 34 36 37 35 34 33 31 29 27 26 24 22 22 22 22 21 20 18 16 14 13 14 16 18 19 21 22 23 24 25 25 26 27 29 30 32
33 36 37 37 36 35 34 37 40 39 37 35 33 30 28 25 23 22 22 23 22 20 19 17 15 13 14 15 17 19 21 22 24 25 27 28 29 30 31 32 33 35
27 32 35 37 37 36 36 38 38 37 37 36 32 29 26 23 22 22 22 22 21 20 18 16 14 15 16 17 19 20 22 24 26 27 29 30 32 33 34 35 36 37
21 24 28 29 30 32 35 37 36 34 34 33 30 27 25 22 22 22 22 22 21 19 17 16 16 17 17 18 20 22 24 26 27 29 31 33 35 37 38 38 37 36
20 21 22 22 23 26 29 33 35 34 31 31 31 28 24 22 22 22 22 22 20 18 17 17 17 17 18 20 22 23 25 27 29 31 33 35 37 39 39 38 37 36
22 22 23 22 22 24 27 30 32 31 30 32 31 28 26 25 24 24 23 22 20 18 17 17 17 18 20 22 23 25 27 29 30 33 35 37 38 38 38 38 37 37
23 24 24 24 23 24 27 29 27 28 31 32 30 28 27 27 25 24 22 20 18 17 16 17 18 20 22 23 25 27 28 30 33 34 36 36 36 36 37 37 37 37
24 25 25 25 25 25 27 27 24 26 30 31 29 28 28 26 24 22 20 18 17 16 16 18 20 22 23 25 27 28 30 32 34 34 35 35 35 35 35 36 36 36
24 25 26 27 25 25 26 25 23 26 31 31 28 27 26 24 21 19 18 18 17 17 18 19 21 22 24 25 27 29 31 32 32 33 34 35 35 34 34 34 34 34
24 25 27 27 25 25 26 24 23 28 32 30 28 27 24 21 19 18 18 18 18 18 19 20 21 22 24 25 27 28 29 29 30 32 34 34 34 34 33 33 33 33
23 24 27 27 25 24 25 25 25 30 32 31 30 28 23 20 19 18 19 19 18 19 19 19 20 22 23 24 24 25 26 28 30 32 34 34 34 34 33 33 33 32
22 23 25 25 22 22 24 26 30 34 33 30 28 25 21 20 20 19 18 17 17 17 18 18 19 19 19 20 21 23 26 29 31 33 34 35 35 34 34 34 33 32
20 21 22 22 21 23 26 30 34 35 32 28 24 22 21 20 18 16 15 15 15 16 16 15 15 15 17 19 21 24 27 30 32 34 35 35 36 36 35 35 34 33
18 17 18 19 21 23 28 33 32 26 23 22 21 19 18 16 14 13 12 12 12 12 11 12 13 15 17 19 22 25 28 31 33 34 35 36 36 37 37 37 36 35
Wind_Direction
221 222 227 232 234 231 224 223 223 222 223 224 227 230 231 237 241 240 244 251 272 305 321 334 337 334 334 337 339 339 339 339 340 340 337 335 331 323 313 304 299 293
224 224 226 230 234 234 229 227 226 225 226 229 232 236 237 239 243 245 251 257 267 283 296 307 312 314 319 322 325 328 329 332 336 337 335 331 327 323 315 305 296 290
230 228 228 229 233 234 232 230 230 228 227 229 232 237 241 243 244 247 252 257 265 274 284 293 299 304 309 312 316 319 322 326 329 330 331 328 324 321 317 312 305 295
234 234 234 234 235 237 235 232 232 231 228 228 231 237 243 246 245 247 251 255 262 270 278 286 293 299 302 305 310 314 317 321 323 325 326 325 322 319 316 315 314 311
240 240 240 240 240 240 239 235 233 232 230 229 231 236 242 246 247 247 249 252 258 265 273 281 288 294 297 299 304 308 313 316 317 319 320 320 319 318 317 315 314 315
245 245 245 245 245 244 242 239 235 233 232 230 231 235 240 244 246 247 248 251 254 259 266 273 281 286 288 291 297 302 307 311 312 314 314 314 315 314 314 312 311 311
249 249 249 249 248 247 246 243 239 236 235 235 234 236 239 243 245 246 248 251 253 257 262 267 274 278 281 285 291 294 299 304 306 309 310 310 311 311 310 310 309 309
250 250 251 252 251 249 247 244 241 238 237 238 238 238 241 244 246 248 248 250 252 256 261 267 271 274 277 281 284 288 294 298 301 304 306 307 306 306 306 306 306 306
254 252 251 252 252 252 250 246 243 241 239 239 240 241 244 247 248 249 249 250 252 255 261 266 270 273 276 278 281 287 292 297 300 302 303 303 303 304 305 305 305 305
259 257 255 253 253 253 253 251 248 245 243 241 242 243 245 247 248 248 247 249 251 256 261 265 268 270 272 273 278 286 292 295 299 301 301 302 303 304 306 306 305 305
260 261 260 258 256 255 255 254 252 249 247 245 244 245 245 246 246 245 245 247 251 256 260 263 266 266 268 273 280 287 291 294 295 297 298 300 303 304 305 305 305 305
261 262 264 264 263 259 256 255 253 252 250 248 247 245 245 245 244 243 243 246 250 255 258 261 262 264 269 278 286 290 294 296 297 298 300 301 302 303 303 304 305 305
263 263 265 267 266 263 261 258 255 252 250 248 247 245 243 243 242 241 242 245 249 253 255 256 258 263 272 280 285 291 295 299 301 303 304 303 303 302 303 304 304 306
268 267 266 266 267 265 264 260 256 252 250 247 244 242 241 239 238 239 240 244 247 250 250 251 255 263 270 276 284 292 297 301 303 304 303 302 302 302 303 304 305 306
275 273 271 271 271 270 269 266 262 257 252 247 241 238 237 235 234 236 239 241 243 244 245 248 254 262 269 278 287 295 299 301 302 301 301 300 301 301 303 304 305 306
280 276 276 277 276 275 274 273 270 262 253 248 243 236 232 230 231 233 236 238 238 239 242 247 255 264 274 283 290 294 297 298 298 298 298 298 299 301 302 304 305 305
282 277 276 275 273 274 274 273 271 264 252 243 238 230 224 224 229 232 233 234 234 235 241 250 259 269 277 282 287 291 293 294 295 296 297 298 300 302 303 305 305 305
281 279 277 273 270 272 273 272 269 263 249 236 228 220 217 220 225 228 230 230 231 236 244 254 263 270 276 280 285 288 290 292 295 297 299 300 302 303 305 306 307 307
275 273 274 274 273 274 275 271 266 255 239 225 216 211 213 216 219 223 226 229 233 240 248 257 264 270 274 279 283 287 290 293 296 298 300 302 304 305 306 307 307 306
275 270 269 270 271 273 272 268 261 246 227 214 208 207 209 210 211 217 225 232 238 244 251 258 263 269 274 279 283 288 291 294 296 299 301 303 304 305 306 306 305 304
275 268 267 267 268 270 267 261 250 231 214 206 204 205 205 205 208 215 226 234 240 246 253 258 263 269 275 281 287 291 294 296 298 300 301 303 304 305 305 304 303 301
274 266 264 266 267 266 261 252 235 216 204 199 198 199 202 206 208 215 226 232 239 246 252 258 266 274 281 288 293 296 298 300 302 303 304 305 306 306 305 303 302 301
274 264 260 263 264 261 255 244 222 204 197 197 198 199 201 205 207 214 222 230 238 246 254 264 274 283 290 295 299 302 304 306 308 308 309 309 309 309 307 305 304 303
273 261 258 261 258 253 249 234 211 198 196 197 199 197 195 199 206 213 221 231 242 252 264 275 284 292 298 302 306 309 312 314 315 315 314 313 313 311 309 308 307 306
269 258 255 252 245 241 232 214 198 192 191 191 191 191 192 197 206 215 226 239 253 265 277 286 295 304 308 312 316 319 320 321 320 319 318 317 315 314 313 312 312 312
264 250 245 243 240 233 216 200 189 179 174 174 176 182 189 199 211 224 239 253 266 279 293 302 309 315 318 322 324 325 324 324 323 322 321 319 317 317 316 316 317 317
Height
1516 1517 1518 1520 1521 1521 1522 1523 1523 1523 1524 1525 1526 1526 1527 1527 1527 1528 1528 1528 1528 1528 1528 1528 1528 1528 1528 1528 1528 1527 1527 1527 1526 1526 1525 1525 1525 1525 1524 1524 1523 1523
1514 1516 1517 1518 1519 1520 1521 1521 1522 1522 1523 1523 1524 1525 1525 1526 1526 1526 1527 1527 1527 1527 1527 1527 1527 1527 1527 1527 1527 1527 1527 1526 1526 1525 1525 1524 1524 1523 1523 1523 1523 1522
1513 1514 1515 1516 1517 1518 1519 1520 1520 1521 1521 1522 1522 1523 1524 1524 1525 1525 1525 1526 1526 1526 1526 1526 1526 1526 1526 1526 1526 1526 1526 1526 1525 1525 1524 1524 1523 1523 1522 1522 1522 1521
1511 1512 1513 1514 1515 1517 1518 1518 1519 1519 1519 1520 1521 1521 1522 1522 1523 1523 1524 1524 1524 1524 1524 1524 1525 1525 1525 1525 1525 1525 1525 1524 1524 1523 1523 1523 1522 1522 1521 1521 1521 1521
1510 1511 1512 1513 1514 1515 1516 1516 1517 1517 1518 1518 1519 1519 1520 1520 1521 1521 1522 1522 1522 1522 1523 1523 1523 1523 1523 1523 1523 1523 1523 1523 1522 1522 1522 1521 1521 1520 1520 1520 1520 1519
1508 1509 1510 1511 1512 1513 1514 1514 1515 1516 1516 1517 1517 1518 1518 1518 1519 1519 1520 1520 1521 1521 1521 1521 1522 1522 1522 1522 1522 1522 1522 1521 1521 1520 1520 1520 1519 1519 1518 1518 1518 1517
1506 1507 1508 1509 1510 1511 1512 1513 1513 1514 1514 1515 1515 1516 1516 1517 1517 1518 1518 1519 1519 1519 1520 1520 1520 1520 1520 1521 1521 1520 1520 1519 1519 1519 1518 1518 1517 1517 1516 1516 1515 1515
1502 1504 1505 1506 1507 1508 1509 1510 1511 1512 1512 1513 1513 1514 1515 1515 1516 1517 1517 1518 1518 1518 1518 1518 1518 1519 1519 1519 1519 1518 1518 1518 1517 1517 1516 1516 1515 1515 1514 1514 1513 1512
1499 1501 1502 1503 1504 1505 1506 1507 1508 1509 1510 1510 1511 1512 1513 1514 1514 1515 1516 1516 1516 1516 1517 1517 1517 1517 1517 1517 1516 1516 1515 1515 1514 1514 1514 1513 1513 1512 1512 1511 1511 1510
1496 1497 1499 1500 1501 1502 1503 1504 1505 1506 1507 1508 1509 1509 1510 1511 1512 1513 1514 1514 1515 1515 1515 1515 1515 1515 1515 1515 1514 1513 1513 1512 1512 1511 1511 1510 1510 1510 1509 1509 1508 1508
1491 1493 1495 1496 1497 1498 1500 1501 1502 1503 1504 1505 1506 1507 1508 1508 1509 1510 1511 1512 1513 1513 1513 1514 1514 1514 1513 1512 1512 1511 1510 1510 1509 1509 1508 1508 1507 1507 1506 1506 1505 1505
1488 1489 1491 1492 1494 1495 1496 1497 1498 1499 1501 1502 1503 1504 1505 1506 1507 1508 1509 1509 1510 1510 1511 1511 1511 1511 1511 1510 1509 1509 1508 1507 1507 1506 1506 1505 1505 1504 1503 1503 1502 1501
1485 1486 1487 1488 1490 1491 1492 1493 1493 1495 1496 1498 1500 1501 1502 1503 1504 1505 1506 1507 1507 1508 1508 1509 1509 1508 1508 1507 1507 1506 1506 1505 1504 1504 1503 1502 1502 1501 1500 1499 1499 1498
1482 1483 1484 1484 1486 1487 1488 1489 1489 1491 1493 1494 1495 1497 1499 1501 1502 1503 1504 1504 1505 1506 1506 1506 1506 1505 1505 1504 1504 1504 1503 1503 1502 1501 1500 1499 1498 1497 1497 1496 1495 1494
1479 1480 1480 1481 1483 1484 1484 1484 1486 1489 1492 1493 1494 1496 1497 1499 1500 1500 1501 1502 1502 1503 1504 1503 1503 1502 1502 1502 1501 1501 1501 1500 1500 1499 1498 1496 1495 1494 1493 1492 1491 1490
1476 1476 1477 1478 1480 1481 1481 1482 1483 1485 1488 1492 1494 1495 1496 1497 1498 1498 1499 1500 1500 1500 1501 1501 1500 1500 1500 1499 1499 1498 1498 1497 1496 1496 1495 1493 1492 1491 1489 1488 1487 1486
1474 1474 1474 1475 1476 1477 1478 1479 1479 1481 1483 1486 1489 1492 1493 1495 1496 1497 1497 1497 1497 1497 1498 1498 1498 1498 1498 1497 1496 1495 1495 1494 1493 1492 1492 1490 1489 1487 1485 1484 1483 1482
1471 1471 1471 1472 1472 1473 1474 1475 1477 1478 1481 1482 1484 1487 1490 1491 1492 1495 1495 1495 1495 1494 1495 1496 1496 1496 1495 1494 1493 1492 1491 1490 1490 1489 1488 1487 1485 1483 1481 1480 1478 1477
1468 1468 1468 1469 1469 1470 1470 1472 1473 1475 1477 1479 1480 1483 1485 1486 1488 1492 1493 1493 1493 1492 1493 1493 1493 1493 1492 1491 1490 1489 1488 1487 1486 1485 1484 1483 1481 1480 1478 1476 1474 1473
1465 1465 1465 1465 1466 1466 1467 1468 1470 1471 1473 1475 1477 1479 1481 1482 1485 1489 1491 1492 1491 1491 1491 1491 1491 1490 1490 1489 1488 1486 1485 1483 1482 1481 1480 1479 1478 1476 1474 1472 1470 1468
1461 1461 1461 1461 1462 1463 1464 1465 1467 1469 1471 1473 1475 1477 1479 1480 1482 1486 1489 1490 1490 1489 1489 1489 1489 1488 1487 1486 1485 1483 1481 1480 1478 1477 1476 1475 1474 1472 1470 1468 1466 1464
1457 1457 1457 1458 1458 1459 1461 1462 1464 1466 1468 1470 1472 1475 1477 1478 1481 1484 1486 1487 1487 1487 1487 1487 1486 1486 1485 1483 1482 1480 1478 1476 1475 1473 1471 1470 1469 1468 1466 1463 1461 1459
1452 1453 1453 1454 1455 1456 1458 1460 1462 1464 1466 1467 1469 1472 1474 1477 1480 1482 1483 1484 1484 1484 1484 1484 1484 1483 1482 1481 1479 1478 1475 1473 1471 1469 1467 1466 1464 1463 1460 1458 1456 1454
1448 1448 1449 1450 1451 1454 1456 1458 1460 1461 1463 1465 1467 1470 1473 1476 1478 1480 1480 1481 1481 1481 1481 1481 1481 1480 1479 1478 1477 1475 1472 1470 1468 1465 1463 1461 1459 1457 1455 1453 1450 1449
1443 1444 1445 1447 1448 1451 1454 1456 1457 1458 1460 1463 1466 1469 1472 1474 1476 1478 1478 1478 1479 1479 1479 1478 1478 1478 1476 1475 1474 1472 1469 1467 1465 1462 1459 1457 1455 1452 1449 1447 1445 1443
1439 1440 1442 1443 1446 1449 1451 1454 1457 1460 1462 1464 1467 1469 1471 1473 1475 1476 1476 1476 1476 1476 1476 1475 1475 1475 1474 1472 1471 1469 1467 1464 1462 1459 1456 1453 1450 1447 1444 1441 1439 1437